Regional Weather Roundup
Issued by NWS Glasgow, MT

Home | Current Version | Previous Version | Text Only | Print | Product List | Glossary On
Versions: 1 2 3 4 5 6 7 8 9 10 11 12 13 14 15 16 17 18 19 20 21 22 23 24 25 26 27
000
ASUS45 KGGW 291615
RWRGGW
HOURLY REGIONAL WEATHER ROUNDUP FOR NORTHEAST MONTANA
NATIONAL WEATHER SERVICE GLASGOW MONTANA
1000 AM MDT FRI APR 29 2016

NOTE: "FAIR" INDICATES FEW OR NO CLOUDS BELOW 12,000 FEET WITH NO
SIGNIFICANT WEATHER AND/OR OBSTRUCTIONS TO VISISBILITY.

NORTHEAST MONTANA


CITY           SKY/WX    TMP DP  RH WIND       PRES   REMARKS
GLASGOW        CLOUDY    46  36  68 SE13      30.12R
PLENTYWOOD       N/A     54  22  28 SE6         N/A
WOLF POINT     CLOUDY    49  33  54 E7        30.14S
JORDAN           N/A     43  36  76 SE10      30.10R
WINNETT          N/A     42  38  85 E2          N/A
SIDNEY         CLOUDY    50  30  46 SE9       30.17S
GLENDIVE       CLOUDY    45  36  70 E7        30.16S
MALTA            N/A     48  37  65 SE7         N/A
SCOBEY           N/A     52  23  32 E13G21    30.12
OPHEIM           N/A     45  25  45 CALM      30.02S

FORT PECK REPORTS


CITY           SKY/WX    TMP DP  RH WIND       PRES   REMARKS
FORT PECK        N/A     45  35  68 E12         N/A
THE PINES        N/A     47  34  60 SE3         N/A

SOUTHEAST MONTANA


CITY           SKY/WX    TMP DP  RH WIND       PRES   REMARKS
BILLINGS       CLOUDY    40  36  86 NE6       30.02F
MILES CITY     PTSUNNY   47  35  63 SE14      30.08F
BAKER          CLOUDY    41  33  73 SE8       30.11F
LIVINGSTON     CLOUDY    38  30  73 E15       29.98S

CENTRAL MONTANA


CITY           SKY/WX    TMP DP  RH WIND       PRES   REMARKS
HAVRE          CLOUDY    47  34  60 SE17      30.03R
LEWISTOWN      CLOUDY    42  31  64 E14       30.00S
GREAT FALLS    MOSUNNY   43  33  68 S8        29.97S
CUT BANK       CLOUDY    37  34  89 SE7       29.97S
HELENA         CLOUDY    43  30  60 SE3       29.95F
BUTTE          PTSUNNY   39  26  59 E9        29.92S
BOZEMAN        CLOUDY    41  29  62 VRB6      29.95F

WESTERN MONTANA


CITY           SKY/WX    TMP DP  RH WIND       PRES   REMARKS
MISSOULA       CLOUDY    43  35  73 N5        29.95S
KALISPELL      NOT AVBL

NORTH DAKOTA


CITY           SKY/WX    TMP DP  RH WIND       PRES   REMARKS
WILLISTON      CLOUDY    51  27  39 SE16      30.18S
DICKINSON      CLOUDY    45  29  53 E14       30.14F
MINOT          SUNNY     55  22  27 E5        30.21S
BISMARCK       SUNNY     53  31  42 E8        30.18F

SOUTHERN SASKATCHEWAN


CITY           SKY/WX    TMP DP  RH WIND       PRES   REMARKS
REGINA         MOSUNNY   54  18  24 SE15G21   30.18F
MOOSE JAW      MOSUNNY   52  21  30 SE12      30.18S
ESTEVAN        PTSUNNY   54  16  22 E14G20    30.20F
SWIFT CURRENT  SUNNY     52  25  35 SE16G26   30.09S





USA.gov is the U.S. government's official web portal to all federal, state and local government web resources and services.